Terminal Aerodrome Forecast
Issued by NWS Greer, SC

Home | Current Version | Previous Version | Text Only | Print | Product List | Glossary On
Versions: 1 2 3 4 5 6 7 8 9 10 11 12 13 14 15 16 17 18 19 20 21 22 23 24 25 26 27 28 29 30 31 32 33 34 35 36 37 38 39 40 41 42 43 44 45 46 47 48 49 50
000
FTUS42 KGSP 281457 AAA
TAFCLT
TAF AMD
KCLT 281457Z 2815/2912 01008KT P6SM SCT250
     FM282300 06005KT P6SM FEW060 BKN250
     FM290300 10004KT P6SM SCT060 BKN250
     FM290600 12005KT P6SM BKN060 OVC250 PROB30 2906/2912 -SHRA=

USA.gov is the U.S. government's official web portal to all federal, state and local government web resources and services.